STARLINK-4399, 53469

Orbit data source: Space-Track

STARLINK-4399, 53469 is a payload satellite owned by SpaceX/Seattle (US) in SSO that was launched on Fri, 12 Aug 2022 UTC via an FALCON 9 launch vehicle from the Air Force Western Test Range (AFWTR). Payload-class satellites include a variety of spacecraft equipped with specific instruments for various scientific and technological missions. These include communications satellites like Starlink; space stations such as the ISS; scientific satellites like the Hubble; Earth observation satellites from companies like Planet Labs, Umbra, and HawkEye 360; GPS; miniature CubeSats for education and research; and military/defense satellites.

Loading next visibility...
Identifier
53469, 2022-099E
Orbit
SSO
Country
Flag of USUS
Related business
Manufacturer
SpaceX/Seattle
Mission
Operational Commercial Communications
Bus & Motor
STARLINK, Unknown motor
Mass
300 kg wet, ~275 kg dry
Launch date (UTC)
2022-08-12 (4 years ago)
Launch vehicle
FALCON 9
Launch site
Air Force Western Test Range (AFWTR)
Object type
Payload
Rocket body
Debris
Shape & HBR
Box + 1 Pan, 10.1 m
Radar Cross Section
13.562 m², Large (>1 m²)

Expand to show TLE details & history
Last TLE update: 14 hours ago

TLE from 14 hours ago
0 STARLINK-4399
1 53469U 22099E   26145.29870067 -.00001132  00000-0 -74366-4 0  9995
2 53469  97.4474 266.3717 0001266 108.8442 251.2923 15.05658670207576
Epoch: 2026-05-25T07:10Z
TLE epoch observation values (Epoch: 2026-05-25T07:10:07.737Z)
Latitude
-0.00001°
Longitude
-84.04903°
Altitude
552.836 km
Speed
7.585 km/s
True Right ascension
17h 45m 29s
True Declination
0° 00' 00"
Sunlit
Object was in full shadow at epoch
Visualization orbit readout
Latitude
Unknown
Longitude
Unknown
Altitude
Unknown
Speed
Unknown
Apparent Right ascension
Unknown
Apparent Declination
Unknown
Sunlit
N/A
Visualization observer readout
Local Sidereal Time
06:10:12
Azimuth
Unknown
Elevation
Unknown
Doppler factor
Unknown
Orbital elements
Apogee altitude
547.348 km
Perigee altitude
545.595 km
Semi-major axis
6,924.608 km
Eccentricity
0.00013
Inclination
97.4474°
RAAN
266.3717°
Arg. of periapsis
108.8442°
True anomaly
251.27856°
Mean anomaly
251.2923°
Eccentric anomaly
251.28543°
Mean motion
3.76661 °/min
Orbital period
95.58 mins
BSTAR
-0.000074366
Loading maneuver chart data...
Computing Atmospheric mass density...
Loading historical data...
Loading historical data...
Loading historical data...
Loading historical data...
Loading historical data...
Loading historical data...
Loading historical data...

Documentation

Showing up to 5 results
|